RH
83 82 69 65 72 66 55 49 50 58 63 69 79 85 91 94 85 70 67 70 66 67 76 77 81 97 104 98 90 82 73 66 62 61 61 62 65 67 70 71 71 67 64 62 61 62 64 64 64 63 61 61 62 65 67 64 57 51 49 49 51 54 57 60 64 68 71 72 73 73 72 70 68 65 65 68 72 77 82 86 90 93 95 97 100 103
83 77 66 68 76 68 55 48 49 57 63 73 81 84 92 92 80 74 73 73 71 71 79 81 83 99 106 102 102 98 85 68 59 59 60 61 63 64 65 68 69 68 65 66 65 64 64 65 65 65 65 66 67 68 70 73 71 66 59 54 52 52 52 53 54 57 60 64 66 68 70 71 71 71 69 68 67 67 69 73 78 82 86 90 93 96
83 73 67 74 78 67 55 47 46 51 62 76 82 82 89 88 76 76 80 79 77 77 81 82 83 99 109 107 107 103 90 75 65 63 61 59 62 66 68 67 68 69 69 70 72 71 68 66 63 63 64 67 70 72 74 77 78 77 74 69 63 58 54 52 50 50 50 52 54 57 60 62 65 67 69 71 71 70 68 68 68 69 72 76 80 85
80 70 71 79 76 64 55 49 45 48 64 78 84 84 84 82 75 76 83 84 84 83 81 80 79 93 109 111 108 100 90 87 83 76 69 62 61 66 70 72 71 70 69 71 75 74 71 67 63 61 61 62 64 68 72 77 80 83 84 82 77 71 65 59 53 50 48 47 46 47 48 50 52 56 58 61 64 66 68 70 70 69 67 66 66 68
75 68 76 81 71 60 54 53 51 55 70 83 89 87 80 80 80 80 84 84 85 83 81 80 73 82 105 112 108 101 94 94 93 91 89 80 70 67 68 70 70 68 67 68 71 72 71 69 68 63 59 57 58 60 64 68 74 79 84 86 85 82 78 73 66 59 53 50 47 45 44 44 44 45 47 49 51 54 57 60 64 66 68 67 66 65
71 70 78 77 67 59 54 57 62 66 75 84 88 86 82 85 87 85 86 82 81 79 77 76 69 73 94 103 105 107 103 96 90 90 96 96 89 83 78 73 70 68 65 64 65 67 69 71 73 70 63 58 56 57 59 61 64 68 72 76 79 81 82 81 79 75 68 61 55 51 47 45 44 43 43 42 43 43 45 47 50 52 55 59 62 64
72 78 79 72 64 60 60 67 75 77 78 81 85 87 88 91 90 88 87 81 78 77 73 73 71 66 74 89 101 108 107 103 95 89 88 89 89 90 90 84 78 73 69 68 67 66 67 70 72 73 71 68 65 61 58 58 59 61 63 64 66 69 73 77 80 82 82 77 72 66 60 54 49 47 46 44 43 41 41 41 42 43 44 45 48 51
76 82 77 67 64 66 71 79 84 84 84 85 88 91 92 94 92 91 87 81 80 76 71 78 79 61 55 76 96 98 98 100 97 94 89 85 80 78 81 81 78 77 75 75 75 73 71 71 70 70 72 76 77 74 67 63 60 59 59 60 60 61 62 65 69 73 78 82 83 82 80 74 66 60 56 51 48 45 44 42 41 40 40 40 41 42
78 78 71 64 68 74 81 87 89 90 92 94 94 93 93 93 93 92 86 84 85 77 74 87 88 63 49 67 86 88 87 88 88 90 91 90 82 70 64 63 62 66 69 72 73 72 71 71 72 70 69 73 77 79 79 76 72 67 65 63 63 62 60 58 59 62 66 71 76 81 86 88 86 82 75 68 60 54 51 48 46 44 42 41 40 39
73 68 65 66 72 79 87 92 94 97 97 98 97 95 94 92 91 91 87 89 89 81 83 92 86 68 52 60 80 84 79 79 81 81 78 76 72 63 55 49 44 42 44 50 55 58 60 62 65 67 68 69 71 73 76 79 80 81 80 76 72 69 65 62 59 58 59 62 65 69 74 81 86 88 88 84 78 72 66 59 56 53 50 49 46 43
67 62 66 73 80 88 94 96 99 100 100 101 100 98 96 93 94 93 90 93 93 86 89 89 80 71 58 58 76 81 74 73 71 66 57 50 47 46 44 42 39 34 30 31 34 39 44 49 53 58 62 65 68 71 75 77 79 82 86 87 85 80 75 71 66 62 60 59 59 61 63 68 73 78 82 84 85 86 83 77 71 66 60 57 54 51
64 67 78 88 93 98 99 99 102 102 101 103 103 100 98 97 99 95 90 93 93 85 86 83 75 71 64 62 72 73 67 64 55 46 40 36 35 35 33 32 34 34 31 29 28 28 31 34 39 45 53 59 64 69 75 80 82 82 83 85 88 90 88 83 77 71 66 63 60 59 59 61 64 67 70 74 78 82 85 85 84 81 75 70 65 61
77 84 94 100 102 103 103 103 102 101 101 102 103 103 102 102 99 92 87 88 86 81 78 75 71 69 65 64 64 60 55 49 41 35 32 32 34 33 31 30 29 30 31 31 31 31 30 30 29 31 37 47 56 64 70 77 81 83 84 82 81 85 89 92 90 84 77 71 67 64 62 61 61 62 63 65 68 72 76 80 82 83 82 82 79 75
85 93 97 100 100 101 103 103 99 96 96 97 101 104 103 102 95 84 78 77 76 74 70 66 65 63 60 56 52 47 42 38 34 32 31 33 34 34 35 35 33 32 32 31 31 32 32 33 32 29 27 31 39 48 57 65 70 75 80 82 80 78 80 85 91 92 90 84 78 74 70 68 66 65 64 63 63 65 67 71 75 78 79 80 82 81
82 91 92 93 98 99 98 97 94 92 91 94 100 103 100 97 90 79 71 67 65 62 59 59 58 54 50 45 42 39 34 31 30 30 31 32 33 35 37 38 38 37 36 35 34 33 33 33 35 35 32 30 31 34 39 47 53 58 64 69 73 76 78 80 84 90 95 94 90 83 79 77 74 71 68 66 65 65 64 65 68 71 75 77 78 79
80 91 94 90 97 103 98 95 94 93 94 95 97 97 92 88 84 76 67 63 60 54 50 52 49 44 40 37 34 31 27 26 27 28 29 29 30 32 35 37 38 38 38 38 37 35 34 33 33 34 35 34 33 33 33 35 39 43 47 51 55 59 64 68 73 80 87 93 94 91 86 84 82 79 75 71 68 67 67 67 67 68 69 72 73 75
73 89 102 97 96 102 100 98 101 101 99 94 89 86 83 79 75 72 65 61 59 51 44 43 41 37 34 31 28 26 23 23 24 24 24 25 28 30 32 34 36 37 37 37 37 36 34 33 33 32 32 32 32 32 33 33 34 35 37 41 45 48 50 51 54 59 66 75 83 87 87 87 87 86 83 79 75 71 67 66 68 69 70 70 71 73
70 80 101 104 97 98 104 106 106 101 95 88 81 77 74 69 66 65 62 59 56 48 39 37 36 32 29 27 24 22 21 21 20 21 21 23 27 29 32 34 36 37 37 36 36 36 34 33 31 30 29 30 30 31 32 33 34 34 32 33 36 41 44 47 48 48 50 53 58 64 71 76 81 84 85 83 81 78 73 69 67 69 70 70 70 73
79 78 90 103 103 103 107 104 96 92 87 81 76 71 67 65 62 61 59 56 52 44 35 32 31 28 27 26 24 21 20 19 17 18 21 24 27 30 33 36 37 37 38 37 38 37 36 34 32 30 29 27 27 28 30 32 34 35 35 33 32 33 35 38 41 44 47 49 50 49 51 55 60 67 74 78 80 80 79 75 73 73 74 72 70 69
88 80 80 95 103 103 100 93 87 84 80 73 69 66 65 65 63 61 58 57 53 43 32 28 27 26 24 25 26 24 21 20 19 20 22 24 26 27 30 34 36 37 36 35 35 35 36 36 36 35 34 32 30 28 28 29 30 33 35 35 34 33 32 33 33 33 36 40 46 49 49 49 49 51 55 60 67 72 74 74 73 74 76 78 76 73
88 82 80 87 93 94 91 86 80 75 70 67 66 66 67 66 64 60 56 56 54 43 31 26 23 21 22 23 24 23 21 21 22 22 22 23 24 24 26 29 31 32 32 30 31 32 33 33 34 35 35 35 34 33 32 31 30 31 32 33 34 33 33 33 33 32 30 29 31 36 41 44 46 47 48 50 53 58 63 66 68 69 71 75 77 76
89 86 81 80 82 85 84 80 76 73 70 67 65 66 67 66 63 59 52 50 49 42 34 29 22 17 18 21 20 20 20 21 21 21 21 22 22 23 25 26 28 28 28 28 29 31 31 30 29 30 31 32 33 33 33 32 32 31 30 30 32 33 33 33 34 34 34 33 30 28 29 31 33 36 40 43 46 49 52 56 60 63 66 70 74 74
93 88 80 76 74 75 75 74 73 72 69 66 66 68 68 64 62 59 51 44 40 36 32 28 21 15 15 16 16 17 18 18 19 20 21 21 21 22 22 23 25 27 28 29 29 30 32 32 30 29 29 30 31 31 30 29 29 29 29 29 28 29 30 32 33 34 35 36 36 33 30 29 28 28 28 30 34 38 41 45 49 53 57 62 66 70
90 84 76 67 60 61 70 73 73 71 69 68 69 69 66 60 56 51 43 36 29 26 26 24 18 14 13 13 14 15 16 16 17 18 19 19 19 19 20 21 23 25 26 27 28 29 31 33 33 33 32 31 31 31 31 30 28 27 27 27 27 27 26 26 28 30 32 34 35 36 35 32 31 30 28 27 27 28 30 33 37 40 43 47 51 56
83 77 69 58 48 49 57 64 67 66 64 65 64 59 53 48 42 36 31 26 21 19 22 22 17 15 14 13 13 14 14 15 16 16 16 17 17 17 18 19 21 22 23 24 25 26 28 31 33 34 34 34 33 33 33 32 31 29 27 27 27 27 27 26 25 25 26 28 30 32 33 34 34 32 31 30 29 29 28 28 30 31 33 36 38 41
74 71 69 63 54 50 51 54 55 52 47 46 45 41 38 35 32 28 24 21 18 17 19 19 17 16 14 12 12 13 14 15 15 15 16 16 17 18 18 19 20 21 22 23 24 24 25 27 29 30 31 33 34 35 34 33 32 31 29 29 28 27 27 28 27 25 24 24 25 26 27 30 32 33 33 32 31 31 30 29 29 30 30 31 33 34
65 67 70 67 62 60 58 55 51 43 35 31 28 26 26 25 24 23 21 18 17 16 16 16 15 15 14 13 12 13 13 13 14 15 16 17 18 18 18 18 19 20 21 22 23 23 23 23 24 25 26 28 30 33 33 32 31 31 30 30 30 29 28 28 29 29 27 25 24 25 24 25 26 28 31 32 32 32 31 31 30 30 30 31 31 33
61 62 65 62 59 61 59 52 45 35 27 22 19 18 19 18 18 17 16 15 15 15 14 14 15 15 13 12 12 11 11 11 11 12 13 15 15 15 15 16 16 16 17 18 19 19 19 19 19 20 21 23 25 27 28 28 28 28 29 29 30 30 30 29 29 29 28 27 26 25 25 24 24 24 25 27 29 31 31 32 31 31 31 31 31 33
56 54 54 52 50 52 51 43 33 26 21 17 15 15 14 13 13 13 14 14 15 14 13 12 13 12 11 9 9 8 8 8 9 10 11 11 11 11 11 12 12 12 12 13 13 13 12 12 12 13 14 16 18 20 22 23 23 24 24 25 25 26 28 28 28 28 28 28 27 26 25 25 25 25 24 24 25 27 28 30 30 31 31 31 32 32
48 45 45 41 36 37 38 32 24 20 17 14 13 13 12 12 12 13 14 13 12 12 11 10 9 9 8 7 7 7 7 7 8 8 9 9 9 8 8 9 9 9 9 9 9 9 9 8 8 8 8 9 10 12 14 16 17 18 19 20 20 20 21 23 24 26 27 27 28 28 27 26 26 26 26 25 24 24 25 26 27 28 29 29 30 30
46 41 37 31 25 24 26 22 18 16 14 13 13 12 11 11 11 11 11 10 9 9 8 7 7 7 6 6 6 6 6 6 6 6 7 7 7 6 6 7 7 7 7 7 7 7 8 7 7 7 7 7 7 8 9 11 12 13 14 15 16 16 16 17 18 20 21 23 25 27 28 28 27 26 26 27 27 26 25 24 25 25 26 27 28 28
42 34 28 23 18 17 17 15 13 13 13 13 12 11 10 9 9 8 8 8 7 6 6 6 5 5 5 5 5 5 4 4 4 4 5 5 5 5 4 5 5 5 5 6 6 7 7 7 8 8 8 8 8 8 8 9 9 10 11 12 13 13 14 14 15 15 16 18 19 22 25 27 28 27 26 25 25 26 26 25 25 25 25 26 26 27
34 27 22 17 13 11 11 11 11 11 11 10 8 8 8 8 7 7 6 6 5 4 4 4 4 4 5 4 4 4 4 4 4 4 5 4 4 4 3 3 3 4 4 4 5 5 5 6 7 7 8 8 8 8 8 8 8 8 9 10 11 12 12 12 12 12 13 14 15 17 19 21 24 25 24 24 23 23 24 25 26 26 26 26 26 26
26 21 16 12 10 9 9 9 9 8 8 7 7 7 6 6 5 5 5 5 5 4 4 4 4 4 4 4 4 4 4 4 4 4 5 5 4 3 3 3 3 3 3 4 4 4 4 5 5 5 6 6 6 6 6 6 7 7 8 8 9 10 10 11 11 11 12 12 13 14 15 15 16 18 19 20 21 21 22 23 24 25 26 26 26 26
18 14 11 10 9 8 8 7 7 6 6 5 5 4 4 4 3 3 4 4 4 4 4 4 4 4 4 4 4 4 4 4 4 4 5 4 4 3 3 3 3 3 3 3 4 4 4 4 4 4 5 5 5 5 5 6 6 6 7 7 7 8 8 9 10 10 11 12 12 13 13 13 13 13 14 16 17 19 20 21 23 25 25 26 27 27
12 11 9 9 8 7 6 6 6 5 4 3 3 3 3 3 3 3 3 4 5 4 4 4 4 4 4 4 4 4 4 3 4 4 5 4 3 3 3 3 3 3 3 3 4 4 4 4 4 4 4 5 5 5 5 5 6 6 6 6 6 7 7 7 8 9 9 10 11 12 12 12 13 13 14 14 15 16 17 19 20 22 23 24 25 26
11 10 8 7 7 6 5 5 4 4 3 3 3 3 3 3 3 3 3 4 5 5 4 4 4 4 5 4 4 4 4 4 4 5 5 4 3 3 3 3 3 3 3 4 4 4 4 4 4 4 4 5 5 5 5 5 5 6 6 6 6 7 7 7 7 8 8 9 10 10 10 11 12 13 14 14 14 15 15 16 17 18 19 20 21 22
10 8 7 6 6 5 4 4 3 3 3 3 3 3 3 4 3 3 3 4 5 4 4 4 4 4 5 5 5 4 4 4 5 5 6 5 4 4 3 3 3 3 3 4 4 4 4 4 5 5 5 5 5 5 5 5 6 6 6 6 6 7 7 8 8 8 8 8 8 9 9 10 11 12 12 13 14 15 15 16 16 16 17 18 19 20
8 7 6 6 5 4 4 4 4 3 3 3 3 3 3 4 4 4 4 5 5 5 4 4 4 4 5 4 4 4 4 4 4 5 5 4 4 4 3 3 3 3 3 3 3 4 4 5 5 5 5 5 5 5 5 5 6 6 6 6 6 7 7 7 8 8 8 8 8 9 9 10 10 11 11 12 12 13 14 14 15 15 16 16 18 19
7 6 6 5 5 4 4 3 3 3 3 3 3 3 4 4 4 4 4 5 5 6 5 5 5 5 5 5 4 4 4 4 4 4 5 4 4 4 3 3 3 3 3 3 3 3 4 4 5 5 5 5 5 5 5 5 6 6 6 6 6 6 7 7 7 8 7 8 9 9 9 10 10 10 10 10 11 11 12 12 13 13 14 14 15 16
6 6 5 4 4 3 3 3 3 3 3 3 3 3 3 4 4 4 4 4 4 5 5 5 4 5 5 4 4 4 4 4 4 4 4 4 4 4 3 3 3 3 3 3 3 3 3 4 4 4 4 4 4 4 5 5 6 6 6 7 7 7 7 7 7 7 8 8 9 9 9 9 10 10 11 11 12 12 12 13 13 13 14 14 15 16
6 5 4 4 3 3 3 3 3 3 3 3 4 4 3 3 4 4 4 4 3 3 4 3 3 3 3 4 4 3 3 4 4 4 4 4 4 4 4 3 3 3 3 3 3 3 3 4 4 4 4 4 4 4 4 4 5 6 6 7 7 7 7 7 7 8 8 8 8 9 9 9 10 11 11 12 13 13 13 13 13 13 13 13 13 13
5 4 4 3 3 3 3 3 3 3 3 3 3 3 3 3 3 3 3 3 3 3 3 3 3 3 3 3 3 3 3 3 3 3 3 3 3 3 3 4 3 3 3 3 3 3 4 4 4 4 4 4 4 4 4 4 5 5 5 6 6 6 7 7 7 8 8 8 8 8 9 9 9 9 10 10 10 10 10 10 9 9 8 8 8 7
5 4 4 3 3 3 3 3 3 3 2 3 3 3 3 3 3 3 3 3 3 3 3 3 3 2 3 2 2 3 3 3 2 3 3 3 3 3 3 3 3 3 3 3 3 3 4 4 4 4 4 4 5 5 5 5 5 5 5 5 5 6 6 6 7 7 7 7 7 7 7 7 7 7 7 7 6 6 6 6 6 6 5 5 6 5
5 4 4 4 3 3 3 3 3 3 3 3 3 3 4 4 4 4 3 3 3 3 3 3 3 3 3 3 3 3 3 3 3 3 3 3 3 3 3 3 3 3 3 3 3 3 4 4 4 4 4 5 5 5 5 5 6 6 5 5 5 5 5 5 5 5 6 6 6 6 6 6 6 6 6 5 5 5 5 5 5 5 5 5 5 6
4 4 4 4 4 4 4 4 4 4 4 4 5 5 6 6 5 5 5 4 4 4 4 3 3 3 3 3 3 3 3 3 3 3 3 3 3 3 3 3 3 3 3 3 3 3 3 4 4 4 4 4 5 5 5 6 6 6 6 6 6 6 6 6 6 6 6 6 6 6 6 6 6 6 6 6 5 5 5 5 5 5 5 5 5 6
5 5 5 5 5 5 5 5 5 5 4 5 5 6 6 7 6 5 5 4 4 4 4 3 3 3 3 3 3 3 3 3 3 3 3 3 3 3 3 3 3 3 3 3 3 3 3 4 4 4 4 4 4 5 5 5 6 6 6 6 6 6 6 6 6 7 7 6 6 6 6 6 6 6 5 5 5 5 5 5 5 5 5 6 6 6
5 5 5 5 6 5 5 6 6 6 6 5 5 6 6 6 5 5 4 4 4 4 4 3 3 3 3 3 3 3 3 3 3 3 3 3 3 3 3 3 3 3 3 3 3 3 3 4 4 4 4 4 4 4 4 5 5 6 6 6 6 6 6 7 6 6 6 6 6 6 6 6 5 5 5 5 5 5 5 5 5 6 6 6 6 6
5 5 5 6 6 6 6 6 6 7 7 6 6 6 6 5 5 5 4 4 4 4 4 4 3 3 3 3 3 3 3 3 3 3 3 3 3 3 3 3 3 3 4 4 3 4 4 4 4 4 4 4 4 4 4 4 5 5 5 5 6 6 6 6 6 6 6 6 6 5 5 5 5 5 5 5 5 5 6 6 6 6 7 7 7 6
5 5 5 6 6 6 5 5 5 5 5 5 5 5 5 5 5 4 4 4 4 4 5 5 5 4 3 3 3 4 3 3 3 3 3 3 3 3 3 3 3 3 4 4 4 4 4 4 4 4 4 4 4 4 4 4 4 4 4 4 5 5 5 5 5 5 5 5 5 5 5 5 5 5 5 5 5 6 6 7 7 7 7 7 7 7
5 5 5 5 5 5 5 5 5 4 4 4 4 4 5 5 5 4 4 4 4 4 5 5 5 5 4 4 4 4 4 4 4 4 3 3 4 4 4 3 3 4 4 4 4 4 4 4 4 4 4 4 4 4 5 5 5 5 5 5 5 4 5 5 5 5 5 5 5 5 5 5 5 5 6 6 6 7 7 7 7 7 7 7 7 8
Wind_Speed
58 60 58 55 55 55 53 52 50 50 51 51 51 51 53 55 57 57 55 55 55 53 55 58 57 61 68 72 72 69 65 62 59 57 55 54 54 54 53 53 52 53 53 53 52 53 54 54 54 55 56 57 58 59 59 60 62 66 70 73 76 79 82 85 88 89 90 92 93 95 96 98 99 100 102 103 105 107 110 111 112 111 111 111 111 111
61 62 60 57 57 56 55 54 52 52 53 53 54 53 55 58 58 58 59 58 58 56 57 59 59 62 69 71 72 72 71 69 65 61 57 56 57 57 57 56 55 55 55 55 54 54 55 55 56 57 57 58 59 61 61 61 62 64 66 68 72 75 78 81 84 86 88 90 92 94 96 97 98 99 100 101 102 104 107 109 111 112 114 115 115 116
63 63 61 59 59 58 57 56 55 54 54 55 56 56 57 60 60 59 62 62 61 60 60 61 60 63 69 71 72 72 73 74 72 67 62 59 59 61 62 61 59 58 58 57 57 56 56 57 58 59 59 59 60 61 63 64 65 65 65 66 68 71 75 78 81 82 84 87 90 93 94 96 97 98 99 101 102 103 104 106 108 110 112 115 117 118
65 64 61 61 61 60 59 59 58 56 56 57 59 59 59 62 63 61 63 65 65 64 64 63 62 64 69 71 71 71 72 75 76 74 71 66 64 64 66 66 65 63 61 60 59 59 58 58 59 61 61 61 61 62 63 65 66 67 67 68 68 69 71 74 77 80 82 84 87 89 91 93 94 95 97 99 101 102 104 105 108 109 111 112 113 115
66 64 62 62 63 62 60 60 60 58 57 59 62 63 62 64 66 66 66 67 67 67 67 67 66 66 69 71 71 71 71 73 76 77 78 76 73 71 71 71 70 68 66 64 63 62 61 61 62 63 64 64 64 64 65 66 67 68 69 70 71 71 71 72 74 77 79 81 84 85 87 88 89 92 94 96 98 100 102 104 106 108 110 110 111 111
66 65 64 64 63 62 61 61 62 61 59 61 64 66 66 67 69 70 71 71 70 69 69 70 69 69 71 72 72 72 71 71 73 76 79 81 81 80 78 77 76 74 72 70 68 66 65 64 65 66 66 66 67 67 67 68 69 70 70 71 72 73 73 73 74 75 77 79 81 82 84 86 87 89 91 93 95 97 99 101 103 105 107 108 108 109
66 66 66 65 64 62 62 62 63 64 63 63 66 68 70 71 72 73 75 76 75 74 72 71 74 74 73 73 74 75 74 73 73 75 77 80 82 84 84 83 82 80 78 76 73 72 70 69 69 69 69 69 69 69 70 70 71 72 72 73 74 75 76 76 76 77 77 78 78 80 82 84 85 87 88 91 92 94 96 98 100 101 102 103 104 105
66 66 67 65 64 63 63 64 65 66 67 67 68 70 72 75 76 77 79 79 79 79 75 74 79 79 74 75 77 77 77 77 77 77 78 79 80 83 85 86 86 86 84 83 80 78 76 75 74 73 73 72 73 73 73 73 74 74 75 75 76 77 78 78 79 79 80 80 79 79 80 81 83 84 87 89 91 93 94 96 97 98 99 100 100 102
67 66 66 65 63 63 64 66 67 69 70 71 72 74 75 78 79 80 82 82 84 82 78 78 84 84 77 77 81 81 81 82 81 82 82 82 81 81 83 85 87 87 87 87 86 84 82 80 79 78 77 76 77 77 77 77 77 77 77 78 79 79 80 80 81 81 82 82 82 82 81 81 82 83 85 88 90 92 93 94 95 96 97 98 99 100
68 66 65 64 63 64 66 68 69 71 73 75 76 77 79 81 82 84 85 86 87 86 82 82 86 87 81 79 82 84 84 85 86 86 86 85 84 82 81 82 84 85 86 87 88 89 88 86 84 82 81 80 80 81 81 81 80 80 80 81 81 82 82 82 83 83 83 84 84 84 84 84 84 84 85 86 88 90 92 93 94 96 96 97 98 99
67 65 65 65 65 66 68 70 72 74 76 78 80 81 83 84 86 87 87 89 91 88 86 87 88 89 86 81 83 87 87 87 89 88 87 85 84 82 80 80 81 83 84 85 86 88 90 90 89 87 85 84 83 83 84 84 84 84 84 83 84 85 85 85 85 86 85 86 86 86 86 86 87 87 88 88 88 88 90 91 93 95 96 97 98 99
66 64 65 66 67 69 71 73 75 77 79 82 83 85 87 88 89 90 89 90 93 91 89 90 90 91 89 84 86 89 89 89 88 87 86 85 84 83 81 80 80 81 82 83 84 85 87 90 91 91 90 89 87 86 86 87 87 88 88 87 87 88 88 88 88 88 88 88 88 88 88 88 89 89 90 90 90 90 90 91 92 93 94 96 97 99
64 64 65 68 70 72 74 76 78 80 82 84 86 88 90 91 92 92 90 92 93 92 91 91 91 91 89 87 88 88 88 88 86 85 84 84 83 83 81 80 79 79 80 81 82 83 85 87 89 90 91 91 91 90 90 90 90 91 92 92 91 91 91 92 92 92 92 91 91 91 91 91 91 91 92 92 93 93 93 93 94 94 94 95 96 97
61 62 66 71 73 75 78 79 81 82 84 86 88 91 93 95 96 94 92 93 93 92 90 89 89 90 88 88 88 87 87 86 84 83 82 81 81 80 79 78 78 78 78 79 80 81 82 84 87 88 89 90 92 93 94 94 94 94 94 95 95 95 94 95 95 95 96 95 94 94 94 94 93 93 94 95 95 95 95 95 96 96 97 97 97 98
63 63 67 72 75 78 81 83 85 86 87 89 90 93 95 97 99 98 95 94 93 91 87 86 89 89 88 88 87 86 86 85 83 81 79 78 77 76 76 75 74 74 75 76 78 79 81 82 84 86 87 88 89 91 94 96 96 97 97 97 97 98 97 97 97 98 99 99 98 98 97 97 97 97 97 97 97 97 97 97 98 98 99 99 100 100
67 66 70 75 78 81 83 86 89 90 91 92 93 95 96 97 99 100 97 94 94 92 87 85 88 89 88 88 86 85 85 83 82 80 78 76 75 73 73 71 71 71 71 73 74 76 79 80 82 83 85 86 87 89 91 94 96 98 99 99 100 100 100 100 100 100 101 102 102 102 101 101 101 101 101 101 101 100 100 100 100 101 101 102 102 103
72 69 72 78 81 84 87 89 91 94 95 95 96 96 97 98 98 99 97 94 95 94 89 86 88 88 88 88 86 85 84 82 81 79 78 76 74 72 71 71 70 70 70 71 72 74 76 78 80 81 83 84 86 88 89 91 94 96 98 100 101 102 102 102 102 102 103 104 104 105 105 104 104 104 104 104 104 104 104 103 103 103 104 104 104 104
79 73 73 79 84 87 90 92 94 95 96 97 97 97 98 97 96 98 98 95 95 95 91 87 87 87 87 87 86 85 84 82 81 80 78 77 75 74 73 72 72 72 72 72 72 73 74 76 77 79 81 82 83 85 87 89 92 94 96 97 99 101 103 104 103 104 104 105 106 107 107 107 107 107 107 107 107 108 108 107 106 106 106 107 107 106
86 81 76 80 87 89 92 94 94 95 97 98 97 97 97 96 96 97 99 98 97 96 93 89 87 87 87 88 87 86 85 83 82 81 80 79 78 77 77 76 76 75 75 74 74 74 74 75 75 77 78 80 81 83 85 87 89 92 94 95 96 98 100 103 104 105 105 106 106 107 108 108 109 109 110 110 110 110 111 110 110 109 109 110 110 109
90 89 83 83 88 92 94 96 96 97 98 97 96 96 96 97 98 99 100 100 101 100 97 93 89 88 88 89 89 88 87 85 84 83 82 81 81 80 80 80 79 79 78 76 75 75 75 75 75 75 77 78 80 81 83 85 87 89 92 94 95 96 98 99 101 103 104 105 106 107 108 108 109 109 110 110 111 112 113 113 113 112 112 112 113 113
92 94 91 88 90 93 96 98 98 98 98 97 96 96 97 99 100 100 100 100 103 103 101 98 94 90 89 90 90 90 89 88 87 86 85 85 84 84 83 82 82 82 81 79 77 76 76 75 75 75 76 77 78 80 82 83 85 88 90 91 93 95 96 97 99 100 102 103 105 106 107 108 109 109 109 109 110 112 113 114 115 114 114 115 115 116
96 97 96 93 93 94 96 98 98 98 98 97 98 98 99 101 102 103 102 101 103 104 103 103 100 93 90 91 91 90 90 90 89 88 87 87 87 86 86 85 85 84 83 82 81 80 79 78 77 76 76 77 78 79 81 82 84 86 88 89 91 92 94 95 97 99 100 101 103 104 105 106 107 108 108 109 109 110 112 113 114 115 116 117 117 118
99 100 99 97 95 95 96 97 97 97 98 99 100 101 102 103 103 105 105 104 103 102 102 105 103 96 93 92 92 91 91 91 90 90 89 88 88 88 87 87 86 86 86 85 84 83 82 82 81 79 78 78 79 80 81 82 83 84 86 88 89 90 92 93 95 97 98 100 101 103 104 105 105 106 107 107 108 109 110 112 113 114 115 116 117 119
101 102 101 100 96 94 94 96 97 98 99 100 101 102 103 103 104 105 106 106 105 102 102 105 104 100 96 94 93 92 92 91 91 90 90 89 88 88 88 87 87 87 87 87 85 85 84 84 84 83 82 81 81 81 82 83 83 84 85 86 88 89 90 91 93 94 96 98 99 101 103 104 104 105 105 105 106 107 109 110 111 113 114 115 116 117
103 103 104 103 99 94 93 95 97 99 100 100 101 102 102 103 104 105 106 106 105 103 103 105 105 102 100 97 94 93 92 92 91 90 90 89 88 88 88 87 88 88 87 87 86 85 85 85 85 85 85 84 83 83 83 84 84 85 86 86 87 88 89 91 92 93 94 96 97 99 101 102 103 104 104 105 105 106 107 108 109 110 111 112 114 115
104 104 105 106 104 101 99 99 100 101 100 100 101 102 103 103 105 106 106 106 105 103 103 104 104 102 101 99 95 93 92 91 90 90 89 88 87 87 87 87 87 87 87 87 86 86 85 84 84 85 85 85 84 84 84 85 85 86 87 88 88 89 89 90 92 92 93 94 95 97 98 99 101 102 103 104 104 105 105 106 107 108 109 110 111 112
104 102 103 105 105 105 105 104 104 104 103 102 102 102 104 105 105 106 106 106 105 104 103 102 102 101 100 98 95 93 92 90 89 88 88 87 88 87 87 87 87 87 87 87 86 86 85 84 84 84 84 84 84 85 85 86 86 87 87 88 90 90 91 91 92 93 94 94 95 96 97 98 98 99 100 101 103 104 104 105 105 106 107 107 108 109
103 101 102 103 103 103 105 106 106 107 106 104 103 103 104 104 105 105 105 104 104 103 102 100 101 100 99 97 95 93 91 90 88 87 87 87 87 87 87 87 87 87 87 87 87 86 85 85 84 83 83 83 84 84 85 86 87 87 88 89 90 91 92 93 93 94 95 95 95 95 96 97 97 98 98 99 99 101 102 103 104 105 105 106 106 107
102 101 101 102 101 101 104 107 107 108 107 106 105 104 104 103 103 103 103 103 102 102 101 100 99 99 99 97 95 93 92 90 88 87 87 87 87 86 86 86 87 87 87 87 87 87 86 84 83 82 82 82 83 83 84 85 86 87 88 89 90 91 92 93 94 95 95 96 96 96 96 96 96 97 98 98 98 99 100 101 102 102 103 104 105 106
103 102 102 103 102 101 104 107 107 108 107 107 105 104 103 102 101 101 101 101 100 100 100 99 97 97 97 95 94 92 91 90 88 87 87 87 87 86 85 86 87 87 87 87 87 87 86 85 83 81 80 80 80 81 82 84 85 86 87 89 90 92 93 94 94 95 96 96 96 96 96 96 96 97 97 98 98 99 99 99 100 100 101 101 102 103
105 104 105 106 104 103 105 107 106 106 106 105 104 102 100 99 98 98 98 98 97 97 96 96 95 94 93 92 91 90 90 89 88 86 86 86 86 85 84 85 85 85 85 86 86 85 85 84 83 81 80 79 79 79 80 82 83 84 85 87 89 91 92 94 95 95 96 96 96 97 97 97 97 97 97 97 98 98 99 99 99 99 99 99 100 100
107 107 107 108 106 104 104 105 104 103 102 102 100 99 97 96 95 94 94 95 94 93 92 92 92 91 90 89 89 88 88 88 87 86 85 86 85 84 84 83 82 82 82 82 83 83 82 82 82 81 80 79 79 78 79 80 81 82 83 85 86 88 90 92 94 95 96 96 96 96 97 98 98 99 99 98 97 97 98 98 98 99 99 99 99 99
108 109 108 108 106 103 102 101 100 99 98 97 95 94 94 93 93 91 91 92 92 91 90 88 87 86 86 86 86 85 85 86 85 84 84 84 83 82 82 82 80 79 78 79 79 79 79 79 79 79 79 80 79 79 79 78 79 80 81 82 84 86 87 89 91 92 94 95 95 96 96 98 99 100 100 100 99 98 97 97 97 98 98 99 100 100
107 107 107 106 105 101 99 98 96 95 94 93 90 89 89 89 87 85 85 86 87 86 86 85 82 82 81 82 82 82 81 81 81 81 83 84 82 79 78 79 78 76 75 75 75 75 75 76 77 77 78 79 79 78 78 77 77 77 78 79 81 83 85 86 88 89 90 91 93 94 95 97 98 99 100 100 100 99 98 98 97 97 97 98 99 99
104 104 104 103 102 99 97 96 94 92 90 89 86 85 84 83 81 78 77 79 81 80 79 79 79 79 78 77 78 78 77 76 75 76 78 81 80 77 75 75 75 74 72 71 72 72 73 73 74 75 76 76 77 76 75 76 76 75 75 77 78 80 82 83 84 85 86 87 89 90 92 94 95 95 96 98 99 100 100 99 98 98 98 98 99 99
102 101 101 99 98 97 94 92 92 90 86 84 83 82 81 80 78 75 72 74 78 78 75 74 74 75 75 74 73 73 73 72 71 71 74 76 75 74 73 70 69 69 68 68 68 68 69 70 70 71 72 73 74 73 73 73 74 74 74 76 76 77 78 79 80 81 82 84 85 87 88 89 89 90 91 93 95 96 98 98 99 99 99 99 99 99
100 99 98 97 96 95 91 89 89 88 86 84 82 80 78 77 76 74 69 69 73 75 74 72 70 70 72 71 71 70 70 69 68 68 72 74 73 71 70 68 67 66 65 65 66 66 66 66 66 67 68 69 70 71 70 70 71 72 73 74 75 74 75 75 76 78 79 82 83 84 84 85 85 86 87 89 91 92 94 96 97 98 98 98 99 99
98 98 97 96 94 93 91 89 88 87 85 83 82 79 77 75 75 73 70 69 70 71 72 71 69 68 69 68 68 68 67 66 66 67 70 72 72 70 69 67 66 64 62 63 64 64 63 63 63 64 65 66 67 68 68 67 68 70 71 72 72 72 72 72 73 75 77 79 79 80 81 81 82 82 83 85 87 89 90 92 94 95 96 97 97 98
97 96 95 94 93 92 90 87 86 85 83 81 79 78 77 75 74 73 70 69 70 70 70 70 69 68 68 67 66 66 65 64 63 65 67 68 69 69 68 66 64 62 60 60 61 60 60 60 60 61 62 63 64 64 64 64 65 67 69 70 70 69 70 70 71 73 75 75 75 75 76 78 78 79 80 81 83 85 86 89 90 92 93 94 95 96
96 95 94 93 92 90 87 84 82 82 81 79 77 76 75 73 72 71 69 68 68 68 67 67 67 66 66 65 65 64 63 62 61 61 63 64 65 66 67 65 63 60 59 58 57 57 57 57 59 59 59 60 60 60 60 60 62 64 66 67 67 68 68 69 70 71 71 71 71 72 73 74 75 75 76 77 79 81 83 85 87 88 90 91 92 93
96 95 94 92 90 88 86 83 81 80 79 78 76 75 74 71 70 69 67 66 65 64 63 62 61 60 60 60 61 60 60 60 60 59 60 60 61 63 64 63 61 60 58 56 55 54 54 55 58 58 57 57 57 57 57 57 59 61 63 64 65 66 66 68 68 68 68 69 70 71 71 72 72 72 73 74 75 78 80 81 83 84 86 87 88 90
96 95 94 92 90 87 85 83 82 80 78 76 74 73 72 69 67 65 64 63 62 60 59 58 57 56 55 54 55 56 56 57 57 58 58 59 59 60 60 60 58 57 55 54 53 52 52 53 56 57 56 56 55 55 55 55 56 58 59 60 62 63 65 65 65 66 67 68 69 69 70 70 70 71 72 73 74 76 78 79 80 82 83 84 85 86
98 96 94 91 89 87 85 83 81 79 77 75 73 71 70 68 66 64 63 62 62 60 59 58 57 56 55 53 53 53 54 54 55 55 55 56 57 58 58 57 56 55 52 51 50 50 50 51 53 53 54 54 54 54 54 54 54 55 56 58 59 60 61 62 62 63 65 65 66 67 68 68 69 69 70 72 72 74 76 77 78 79 79 80 81 82
97 96 94 92 90 89 87 84 83 81 79 78 77 75 74 72 70 68 67 65 64 62 61 59 59 58 57 55 53 52 52 52 52 53 52 53 54 54 55 55 55 54 52 50 48 48 48 48 49 49 50 50 51 52 52 52 52 54 55 56 57 58 59 59 60 61 62 62 63 64 65 65 66 67 68 69 70 71 72 74 75 75 75 76 76 77
96 95 94 93 91 90 90 89 88 86 84 82 81 80 78 76 73 71 69 67 66 64 62 60 59 59 58 56 55 53 52 51 51 51 51 50 51 51 52 52 52 51 50 49 47 46 46 46 46 47 47 47 47 49 49 49 50 52 54 54 55 56 57 58 58 59 59 60 61 62 63 63 63 64 65 66 67 68 69 70 71 72 72 73 73 74
95 95 95 93 91 89 89 89 90 89 87 83 81 79 77 76 74 70 67 65 64 63 62 60 59 58 57 56 55 54 52 50 49 49 49 48 48 48 48 49 49 49 48 47 46 45 45 45 45 45 46 45 45 46 47 48 49 50 51 52 52 53 54 55 56 56 57 58 59 60 61 61 62 62 63 64 65 65 66 67 68 68 69 69 70 71
92 91 91 91 90 87 84 83 84 86 84 80 76 73 72 73 72 70 67 64 62 62 62 60 59 58 56 55 55 54 53 51 50 49 48 47 46 46 46 46 46 46 46 46 45 45 44 44 44 44 44 44 44 45 45 46 47 48 49 49 50 51 51 52 53 53 55 56 57 58 58 59 59 60 61 61 62 62 63 64 64 65 66 66 67 67
90 88 86 86 85 84 82 79 78 80 81 79 74 71 68 68 68 67 66 63 61 61 61 61 60 58 56 54 54 54 53 51 50 49 48 47 46 45 45 44 44 44 44 44 44 44 44 43 43 43 43 43 44 44 44 44 45 46 47 47 48 48 49 50 51 51 52 53 54 54 55 56 57 57 58 58 59 60 60 61 61 62 63 63 63 64
90 87 83 81 79 79 78 76 72 71 73 72 70 67 65 64 63 62 62 61 59 59 58 59 59 59 56 53 53 53 52 50 49 48 47 47 47 46 45 44 43 43 43 42 42 42 42 42 42 42 42 43 43 43 43 43 43 44 45 46 46 47 47 48 49 49 50 50 51 52 52 53 54 55 55 56 57 57 58 58 59 59 59 60 60 60
88 84 80 77 75 74 74 73 70 68 68 68 65 63 62 62 62 61 60 59 58 56 55 55 56 57 56 53 51 51 51 49 48 47 46 45 46 45 44 43 42 42 41 41 40 40 40 41 41 41 41 41 41 41 42 42 42 43 44 44 45 45 46 46 47 48 48 49 49 50 50 51 52 53 53 54 54 55 55 56 56 56 56 57 57 57
88 84 81 78 77 77 76 76 74 72 70 69 67 64 63 63 63 62 61 59 57 56 55 53 53 54 55 54 51 51 50 49 49 48 47 45 45 44 43 43 42 41 40 39 39 38 39 39 40 40 40 40 40 40 41 41 41 42 42 43 43 44 44 44 45 46 46 47 48 48 49 49 50 50 51 51 52 52 53 53 54 54 54 55 55 55
Wind_Direction
315 313 312 313 311 309 307 302 299 297 297 297 298 299 299 298 299 302 305 305 306 308 308 308 310 308 305 305 307 307 305 301 299 298 297 295 293 290 288 287 285 283 281 279 277 274 272 269 267 265 263 261 259 258 257 256 254 253 252 252 251 250 250 249 249 248 248 248 248 249 249 249 249 249 249 249 248 248 248 248 248 248 248 248 248 248
314 312 313 312 310 308 306 302 299 297 297 298 298 299 299 298 300 303 304 305 306 307 307 307 308 307 304 305 307 307 306 303 300 298 297 294 293 291 288 286 284 282 280 278 276 273 271 268 266 265 263 262 261 259 258 257 256 255 253 253 253 252 251 251 250 249 249 248 248 248 248 248 249 249 250 250 249 249 249 249 249 249 249 249 248 248
313 312 313 311 309 307 305 302 300 299 299 298 298 298 298 298 301 303 303 304 305 306 306 305 306 305 303 304 305 305 306 304 302 301 298 295 293 292 290 287 285 282 280 278 276 273 271 268 266 265 263 262 261 260 260 259 258 257 256 255 254 253 252 252 251 251 250 249 248 248 247 247 248 248 249 249 249 249 250 250 250 250 249 249 249 249
312 312 312 310 308 307 305 302 301 300 300 299 298 298 299 299 301 303 302 303 304 305 304 304 304 303 302 303 303 304 304 304 303 303 300 297 293 291 290 289 287 285 282 280 278 275 273 270 268 265 263 261 260 259 259 258 258 258 258 257 256 254 254 253 253 252 251 250 250 249 249 249 248 248 249 249 249 249 250 250 250 250 250 249 249 249
311 311 311 309 308 307 305 302 301 301 301 300 299 299 300 301 302 302 302 302 303 303 303 303 302 301 301 301 302 302 302 302 303 303 301 299 296 292 290 289 288 286 283 281 279 277 275 273 270 267 265 263 260 259 258 257 257 256 257 257 257 256 256 255 254 254 252 251 251 251 250 250 250 249 249 249 249 249 249 249 250 250 250 250 250 250
311 311 310 308 307 306 304 303 301 301 301 300 300 300 302 302 302 302 302 302 302 302 302 303 302 300 300 301 301 301 300 300 300 299 299 298 297 295 293 291 289 287 284 282 280 278 276 274 272 270 267 265 262 260 258 257 256 256 255 255 255 255 255 255 255 255 255 254 253 252 251 251 250 250 250 249 249 249 249 249 249 250 250 250 251 251
310 310 309 308 307 305 304 303 301 301 302 301 301 302 303 302 302 302 302 302 303 302 303 304 302 299 299 301 301 300 299 298 296 294 294 294 294 293 293 291 290 288 286 283 281 279 277 275 273 271 269 267 265 263 260 259 257 256 256 256 255 255 254 254 254 254 255 255 254 254 253 253 252 251 251 251 250 250 250 249 250 250 250 250 251 251
310 310 308 308 306 305 304 303 302 302 303 303 302 302 302 302 302 303 302 303 303 303 304 306 303 299 300 301 300 299 299 297 294 292 290 289 289 289 289 289 288 287 286 284 282 279 277 275 273 271 269 268 267 265 263 261 260 258 257 257 256 256 255 254 253 253 253 254 254 254 254 254 253 253 252 252 251 251 251 251 250 250 250 250 250 250
310 309 308 307 306 305 304 303 303 303 303 303 303 303 303 302 303 303 303 303 303 303 306 306 302 300 300 301 301 300 298 296 294 292 290 288 286 285 285 285 285 284 283 283 281 279 277 274 272 270 269 267 266 265 264 263 261 260 259 258 257 257 256 255 254 254 253 253 253 253 253 253 253 253 253 253 253 252 252 252 252 252 252 251 251 251
310 309 307 306 306 305 304 303 303 303 303 303 303 303 303 303 303 303 303 304 303 304 306 304 301 300 300 301 301 299 297 295 293 291 290 288 287 284 282 281 280 280 279 279 279 278 277 275 272 270 268 266 265 264 264 263 262 261 260 260 259 258 257 257 256 255 254 254 253 253 252 252 252 252 252 252 253 253 253 253 253 253 252 252 252 252
310 309 308 307 306 305 304 303 303 303 303 303 303 303 303 303 303 303 304 304 303 304 304 302 301 300 300 301 300 297 295 295 293 292 291 289 287 285 282 279 278 277 276 275 275 275 275 275 273 271 269 267 265 263 263 263 262 261 260 259 259 259 258 258 257 256 255 254 254 254 253 253 253 253 252 252 252 252 253 253 253 253 253 252 252 252
310 309 308 307 306 305 304 304 304 304 304 304 304 304 303 303 303 303 303 303 302 303 303 301 301 300 300 301 298 296 295 294 293 292 291 289 287 285 283 281 279 277 276 275 274 273 273 273 273 272 271 269 266 264 262 261 261 260 259 258 258 258 258 258 258 257 257 256 255 255 254 253 253 253 253 253 253 252 252 253 253 253 253 253 253 253
309 309 308 306 305 304 304 304 304 304 304 303 303 303 303 303 302 302 302 302 301 301 301 300 300 299 299 298 296 295 294 293 292 291 290 288 287 286 285 283 281 279 278 276 274 273 271 271 271 270 270 269 268 266 263 261 260 259 259 258 257 257 257 257 258 258 257 257 256 256 255 254 254 253 253 253 253 252 252 252 253 253 253 253 253 253
307 307 306 304 304 304 303 303 303 303 303 303 303 303 303 303 302 302 301 300 300 300 299 299 298 298 298 297 296 295 294 292 291 290 288 287 287 286 285 284 283 281 279 278 276 275 272 271 270 269 268 268 267 267 265 264 262 260 259 258 258 257 256 256 256 257 257 257 256 256 255 255 254 254 253 253 253 253 252 252 252 253 253 253 253 253
306 306 305 304 304 304 304 304 304 304 303 304 304 303 303 302 301 301 301 300 299 298 298 299 298 297 297 296 295 294 293 291 290 288 287 286 285 284 283 283 282 281 280 278 277 275 274 272 270 269 268 267 266 265 265 265 264 262 261 259 258 258 257 256 255 255 255 256 256 255 255 255 255 254 254 253 253 253 253 252 252 252 253 253 253 253
307 307 306 305 305 304 304 305 304 304 304 304 303 302 302 301 301 300 300 300 299 298 299 300 298 298 297 296 295 293 291 290 289 287 286 285 284 283 282 281 280 279 278 277 276 274 273 272 270 269 268 267 266 265 264 264 263 263 262 261 260 258 257 257 256 255 255 255 255 255 255 254 254 254 254 254 253 253 252 252 252 252 252 253 253 253
306 307 306 306 306 305 305 305 304 305 304 304 303 302 302 301 300 300 300 300 300 299 300 300 298 298 297 295 294 293 291 290 289 287 286 286 285 285 284 282 281 279 278 276 275 273 272 271 271 270 269 268 267 266 265 264 263 262 262 262 261 260 259 257 256 256 255 255 254 254 254 254 254 254 254 254 254 254 253 252 252 252 252 252 253 253
307 308 308 306 306 305 305 305 304 304 303 303 302 302 302 301 301 300 300 300 300 299 299 299 298 297 296 295 294 293 292 291 290 289 288 288 288 287 286 284 282 281 279 277 276 275 273 272 271 270 269 268 267 267 266 265 264 263 262 262 261 261 260 259 257 256 255 255 254 254 254 254 254 254 254 254 254 254 254 254 253 253 253 253 253 253
308 309 309 307 305 305 304 303 303 303 303 302 302 302 301 301 301 300 301 301 300 299 299 299 298 297 296 295 295 294 293 292 291 291 290 290 289 288 287 285 284 282 280 279 277 276 275 274 272 271 270 269 268 267 266 265 264 263 263 262 262 261 261 260 260 258 257 255 254 254 254 254 254 253 253 254 254 254 254 254 254 254 254 254 254 253
308 308 308 307 305 305 304 304 304 303 303 303 302 302 302 302 302 301 302 302 301 301 300 300 299 298 297 297 296 296 295 294 293 292 291 290 288 287 286 285 284 283 282 280 278 277 276 274 274 272 271 270 269 268 266 265 264 263 262 262 262 261 261 261 260 260 260 258 257 256 255 254 254 253 253 253 253 254 254 254 254 254 254 254 255 255
307 307 308 308 307 306 306 305 305 304 304 304 303 303 303 303 302 302 302 302 302 301 301 301 300 299 298 297 297 296 295 295 294 293 291 290 288 287 286 285 284 283 282 281 280 279 277 275 273 271 270 269 268 267 266 265 264 263 262 262 261 261 261 261 260 260 260 260 259 258 257 256 255 254 254 253 253 253 253 254 254 254 254 254 254 254
307 307 308 308 308 307 306 306 306 305 305 304 304 304 303 303 303 302 302 302 301 301 301 300 300 300 299 298 297 296 295 295 294 292 291 290 289 288 287 286 284 284 283 282 281 280 279 277 274 272 270 269 268 267 266 265 264 263 263 262 262 261 261 260 260 260 259 259 259 259 259 258 257 257 256 254 254 253 253 253 253 253 253 253 254 254
308 308 308 308 308 307 307 306 305 305 304 304 304 304 303 303 303 302 301 301 300 300 300 299 299 300 299 298 297 296 295 294 294 293 292 291 289 288 287 286 285 284 283 282 281 280 280 279 277 275 273 271 269 268 267 266 265 264 263 263 262 261 261 260 260 260 259 259 259 259 259 259 258 258 257 257 256 255 254 253 253 253 253 253 253 254
308 308 308 308 307 307 307 306 305 305 304 304 304 303 302 302 302 301 301 301 300 301 300 300 300 300 300 299 298 297 296 295 294 293 292 290 289 288 287 286 285 284 283 282 281 280 279 278 277 276 275 273 271 270 268 267 266 265 264 264 263 262 261 261 260 259 259 259 258 258 258 258 258 258 257 257 257 256 256 255 254 254 253 253 253 253
309 309 309 308 308 308 307 305 304 303 303 303 302 302 302 302 302 301 301 301 302 302 301 300 300 301 300 299 298 297 296 295 293 292 291 290 289 289 287 286 285 284 282 281 280 279 278 277 276 275 274 274 272 271 270 268 267 267 266 265 264 263 263 262 261 260 259 259 258 258 257 257 258 258 257 257 256 256 256 256 255 255 254 254 254 253
309 310 309 309 309 309 308 307 305 304 303 303 303 303 303 303 303 302 302 302 302 302 301 300 300 299 299 298 298 297 295 294 293 292 291 290 289 288 287 286 284 283 282 281 279 278 277 276 274 274 273 272 272 271 270 269 268 267 266 266 265 264 263 263 262 262 261 260 259 259 258 257 257 257 257 257 257 256 256 256 256 255 255 255 254 254
310 310 309 309 309 309 308 308 306 306 305 306 305 305 305 304 304 303 302 302 302 302 300 300 299 298 298 297 297 296 295 293 293 292 291 290 289 288 286 285 284 283 281 280 279 277 276 275 274 272 272 271 270 270 269 268 267 266 265 265 265 264 264 263 263 262 262 261 260 260 260 259 258 257 257 257 257 257 257 256 256 256 256 255 255 254
309 309 308 308 308 308 308 307 307 306 307 307 307 307 306 305 304 303 303 303 302 301 300 300 299 298 298 297 297 296 295 294 293 292 291 290 288 287 286 284 283 282 281 279 278 277 276 274 273 272 271 270 269 268 268 267 267 266 265 264 264 263 263 263 263 262 262 262 261 260 260 260 260 260 259 258 257 257 257 257 256 256 256 256 256 256
308 309 308 307 308 308 308 307 307 307 308 308 308 307 306 306 305 304 304 303 302 301 301 300 299 299 298 297 297 297 296 295 294 293 291 289 287 285 284 283 282 281 280 279 278 277 276 274 273 272 270 269 268 267 267 266 266 266 265 265 264 263 262 262 262 262 262 262 261 261 260 260 260 260 260 260 260 259 258 257 257 256 256 256 256 256
309 310 309 309 309 310 309 308 308 308 308 308 308 307 307 306 306 305 304 303 302 301 300 299 299 298 297 297 297 297 296 295 293 291 289 287 286 285 283 282 281 280 279 279 278 277 276 276 275 273 271 270 268 267 266 265 265 264 264 264 264 263 262 261 261 261 261 261 261 261 261 261 260 260 260 260 260 260 260 259 259 258 257 257 256 256
311 311 311 310 311 311 310 309 309 309 308 308 307 307 307 306 305 304 303 302 301 300 299 299 298 298 298 298 297 296 294 293 291 289 288 287 286 284 283 281 280 280 279 278 278 277 277 277 276 275 274 272 270 268 267 266 265 264 263 262 262 262 262 261 261 260 260 260 260 260 261 261 261 260 260 259 259 259 259 259 260 260 259 259 258 257
312 312 312 311 312 312 310 309 309 309 308 308 307 307 307 306 304 303 302 301 301 300 300 299 299 299 299 298 296 295 294 292 292 291 289 288 286 285 284 283 281 281 280 280 279 279 278 277 276 275 274 272 270 268 267 265 264 264 263 262 261 261 260 260 260 260 260 260 259 259 260 260 261 261 261 260 259 258 258 258 258 259 259 260 260 259
313 312 312 311 311 312 311 310 310 310 308 308 308 308 307 305 304 304 304 303 302 302 301 300 299 299 298 296 295 294 293 292 292 291 290 288 287 286 285 285 284 283 282 281 280 279 278 277 276 275 274 272 270 269 267 265 264 263 262 262 262 261 260 260 259 259 258 258 258 258 258 258 259 259 260 261 260 260 259 258 258 257 257 258 259 259
313 312 311 311 312 312 312 311 311 310 309 309 309 308 306 305 304 305 304 303 302 302 301 301 300 298 297 296 295 294 293 293 293 292 291 289 288 287 287 286 286 285 283 282 281 280 278 277 276 275 274 273 272 271 269 268 266 264 263 262 261 261 260 260 259 259 258 258 257 257 257 257 257 257 258 259 260 260 260 260 259 258 257 257 257 257
312 312 312 312 313 314 314 314 313 312 311 310 310 308 306 306 307 307 306 304 303 302 302 301 300 299 298 297 296 295 294 293 293 292 291 289 289 289 287 286 286 285 284 282 281 279 278 277 276 275 275 274 273 272 271 270 269 267 265 263 262 261 260 260 260 260 259 258 257 257 256 256 256 257 257 257 258 259 259 259 259 259 258 257 257 257
313 313 314 315 315 315 316 315 314 313 313 312 311 311 311 311 311 310 310 308 306 304 303 302 302 301 300 299 298 297 296 296 295 294 291 289 289 289 288 287 286 285 284 282 280 279 278 277 276 275 275 274 274 273 272 271 270 269 267 265 263 262 261 261 261 261 260 259 258 257 257 257 256 256 256 256 256 257 257 258 258 258 258 258 257 257
315 316 317 317 318 317 318 318 317 317 316 315 315 315 315 315 313 312 312 311 307 306 305 304 304 302 301 301 301 300 299 298 297 295 293 292 291 290 290 289 287 286 285 283 281 280 278 278 277 276 275 274 274 273 272 271 270 269 268 266 265 264 263 262 261 261 260 259 258 258 258 257 257 256 256 256 256 256 256 257 257 257 257 257 257 257
318 319 320 320 321 321 321 322 320 319 318 317 317 318 318 317 315 315 315 313 309 308 307 306 306 305 303 302 301 300 300 299 297 295 293 293 293 293 292 291 289 287 286 284 282 281 280 279 278 276 275 274 273 273 272 272 271 270 269 268 267 266 265 264 262 261 260 259 259 259 258 258 257 256 256 256 255 256 256 256 257 257 257 257 257 257
320 321 322 323 323 323 323 323 321 320 319 320 320 320 320 319 318 317 317 314 311 310 309 309 308 307 306 305 303 302 301 300 298 296 295 295 295 294 293 292 291 290 288 286 284 284 283 281 279 277 276 275 274 273 272 271 270 269 269 268 268 267 266 265 264 263 262 261 261 260 259 258 257 257 256 255 255 255 255 255 256 256 257 257 256 257
324 325 326 326 325 324 324 324 323 321 321 322 322 321 320 320 318 317 316 314 312 311 311 310 309 308 307 306 305 304 302 300 299 297 295 294 294 294 294 294 294 293 291 289 288 286 285 283 281 278 276 275 274 273 272 271 269 269 268 268 267 267 266 265 265 264 264 263 263 262 260 260 259 258 257 257 256 256 255 255 255 256 256 256 256 256
327 328 327 327 326 326 326 325 325 324 324 324 324 322 321 321 319 317 317 315 313 312 311 310 309 307 306 305 304 303 302 300 299 298 295 294 293 293 294 295 296 295 294 292 290 288 286 284 281 279 278 276 275 274 273 271 269 268 267 267 267 266 265 265 264 265 265 264 263 263 262 261 261 261 260 259 258 258 258 257 257 257 257 257 257 257
329 329 329 328 328 328 328 327 326 326 325 325 324 323 321 320 319 318 317 316 315 314 313 312 310 309 308 307 305 304 303 301 300 299 298 297 297 296 296 296 296 295 294 293 291 288 286 283 282 282 281 280 279 277 276 273 271 269 268 267 266 265 264 264 264 264 264 263 263 263 263 262 262 261 261 260 260 259 259 259 258 258 258 258 258 258
331 330 330 330 329 329 329 328 327 326 326 326 325 324 322 322 321 321 321 321 320 319 318 317 316 314 312 311 309 308 306 304 302 301 300 300 299 299 298 298 297 296 295 293 291 289 286 284 283 283 283 283 281 280 278 276 274 273 271 269 267 266 266 265 264 264 263 263 263 263 263 262 262 261 261 260 260 260 260 260 260 259 259 259 259 259
331 331 331 331 331 330 330 330 329 328 329 329 328 328 327 326 326 327 326 325 325 324 322 321 320 318 317 316 314 312 310 308 307 305 304 302 301 300 299 299 298 298 298 296 294 291 289 287 285 283 282 281 280 279 278 277 276 274 272 270 269 269 268 267 266 265 265 265 264 264 264 263 263 262 262 261 261 260 260 261 261 261 261 261 260 260
333 333 333 333 333 332 332 332 331 331 332 332 332 331 330 329 329 329 328 327 327 325 324 324 322 321 320 319 319 317 315 314 312 310 308 307 305 303 301 300 300 300 299 298 297 294 291 288 286 284 282 281 280 279 278 277 275 273 272 271 271 270 269 268 268 268 267 267 266 266 265 265 264 263 263 262 261 261 261 261 261 261 261 260 260 260
334 335 334 333 334 334 333 333 332 331 332 333 333 332 330 329 328 329 328 328 327 326 325 324 323 322 322 322 321 320 318 318 316 313 312 310 308 306 304 303 302 301 300 299 298 296 294 291 289 287 285 284 282 280 279 277 276 274 273 273 271 270 269 269 268 268 267 266 266 265 265 264 264 263 263 262 262 261 261 260 260 260 260 260 260 259
336 336 335 334 333 334 333 333 332 330 330 331 331 331 330 328 328 328 329 329 328 327 326 325 325 324 324 325 324 322 321 321 319 317 315 313 311 309 307 305 304 303 302 301 299 298 296 294 293 291 289 287 285 283 281 280 278 277 275 274 272 271 269 269 268 267 266 265 265 265 264 264 264 263 263 263 263 262 262 261 261 261 261 260 260 259
337 337 336 335 334 333 333 334 333 330 330 330 331 331 329 328 328 328 328 329 329 328 327 326 325 325 326 327 326 324 323 323 322 320 318 316 314 312 310 308 306 305 304 302 301 300 299 297 295 293 291 290 288 286 284 282 280 278 277 275 273 271 270 269 268 267 266 265 265 265 265 265 265 264 264 264 264 263 263 262 262 262 261 261 260 260
337 337 337 336 335 334 333 333 332 330 329 329 330 331 330 329 328 329 329 330 330 330 329 328 327 326 327 328 327 325 324 324 322 321 320 318 316 314 312 310 309 307 306 304 303 301 300 298 297 295 294 292 291 289 287 285 282 280 278 277 275 274 272 271 270 269 268 267 267 266 266 266 265 265 265 265 264 264 264 264 263 262 262 261 261 261
337 337 337 336 335 333 332 331 332 331 330 329 331 331 331 330 330 331 331 332 332 331 330 330 329 327 327 329 329 327 326 325 324 323 322 320 318 317 315 313 311 310 308 306 305 303 302 300 299 298 296 295 293 291 289 287 284 282 281 279 278 276 275 274 273 272 271 270 269 268 267 266 266 266 266 266 265 265 265 264 264 263 263 262 261 261
337 337 338 338 337 336 335 334 334 334 333 332 333 334 334 334 334 334 334 334 333 332 332 332 331 330 329 330 330 329 328 327 326 325 324 323 321 319 318 316 314 312 310 308 306 304 303 302 301 300 299 297 296 294 292 290 287 286 284 282 280 279 278 277 275 274 273 273 272 271 270 269 268 268 267 267 266 266 265 265 264 264 263 263 262 261